www.pogodaiklimat.ru

Погода и климат >> Архив погоды >> Бельгия >> Шьевр


ПОГОДА в Шьевре

  • Прогноз погоды в Шьевре
  • Монитор погоды в Шьевре

АРХИВ ПОГОДЫ в Шьевре

Время (UTC), дата Ветер
(напр.,м/с)
 
Видим.   Явления Облачность Т
(С)
Тd
(С)
f
(%)
Тe
(С)
Тes
(С)
Комфортность P
(гПа)
Po
(гПа)
Тmin
(С)
Tmax
(С)
R
(мм)
R24
(мм)
S
(см)
07 12.05 С 4
{5}
19 км н/о +8.6 +4.8 77 +6 +6 1034.5 1027.2
08 12.05 СВ 4
{6}
20 км н/о +10.8 +4.2 64 +9 +9 1034.7 1027.5
09 12.05 СВ 4
{8}
20 км н/о +11.7 +3.7 58 +10 +10 1035.0 1027.9
10 12.05 С 5
{8}
19 км н/о +12.4 +3.6 55 +10 +10 1035.2 1028.0
11 12.05 С 3
{7}
20 км н/о +11.0 +3.8 61 +9 +9 1035.5 1028.2
12 12.05 С 3
{8}
20 км н/о +12.7 +4.7 58 +12 +12 1035.5 1028.2
13 12.05 С 4
{8}
20 км н/о +11.8 +3.7 58 +10 +10 1036.0 1028.7
14 12.05 С 4
{6}
20 км н/о +14.0 +5.5 57 +13 +13 1036.0 1028.9
15 12.05 С 5
{8}
20 км н/о +12.2 +4.1 58 +10 +10 1036.2 1029.0
16 12.05 С 4
{8}
20 км н/о +12.7 +3.3 53 +11 +11 1036.4 1029.2
17 12.05 С 6
{9}
20 км н/о +12.8 +2.9 51 +11 +11 1036.5 1029.2
18 12.05 С 7
{9}
20 км н/о +11.6 +3.0 56 +9 +9 1037.2 1029.9 +14.2
19 12.05 С 4
{8}
20 км н/о +9.9 +3.2 63 +7 +7 1037.5 1030.2
20 12.05 С 4
{6}
20 км н/о +8.3 +3.5 72 +5 +5 1038.2 1030.7
21 12.05 С 3
{8}
20 км н/о +7.0 +4.3 83 +4 +4 1038.5 1031.0
22 12.05 С 3
{3}
20 км н/о +6.3 +4.1 86 +3 +3 1038.7 1031.2
23 12.05 С 2
{4}
20 км н/о +5.6 +4.0 89 +3 +3 1039.0 1031.7
00 13.05 С 2
{8}
20 км н/о +4.9 +3.5 91 +2 +2 1039.2 1031.7
01 13.05 С 2
{3}
19 км н/о +4.5 +3.1 91 +2 +2 1039.2 1031.7
02 13.05 СВ 2
{4}
20 км н/о +4.4 +2.8 89 +2 +2 1039.2 1031.7
03 13.05 нст 1
{4}
20 км н/о +4.0 +2.4 89 +3 +3 1039.2 1031.7
04 13.05
{3}
20 км н/о +3.6 +2.2 91 1039.4 1031.9
05 13.05 С 2
{3}
16 км н/о +4.4 +3.2 92 +2 +2 1039.5 1032.0
06 13.05 СВ 3
{4}
19 км н/о +6.7 +4.1 83 +4 +4 1039.7 1032.2 +3.2
07 13.05 СВ 4
{5}
20 км н/о +8.3 +4.6 77 +5 +5 1039.9 1032.5
08 13.05 СВ 4
{6}
20 км н/о +10.3 +4.9 69 +8 +8 1039.9 1032.5
09 13.05 СВ 5
{7}
20 км н/о +11.1 +3.7 60 +9 +9 1040.0 1032.5
10 13.05 СВ 5
{8}
20 км н/о +12.5 +3.5 54 +11 +11 1039.7 1032.4
11 13.05 СВ 4
{9}
20 км н/о +13.4 +4.3 54 +12 +12 1039.4 1032.0
12 13.05 СВ 4
{9}
20 км н/о +13.9 +2.6 46 +13 +13 1039.0 1031.7
13 13.05 СВ 5
{9}
20 км н/о +14.9 +2.2 42 +14 +14 1038.5 1031.2
14 13.05 СВ 5
{9}
20 км н/о +15.6 +1.9 40 +15 +15 1038.0 1030.7
15 13.05 СВ 5
{9}
20 км н/о +15.6 +1.4 38 +15 +15 1037.2 1030.0
16 13.05 СВ 6
{10}
20 км н/о +15.7 -0.1 34 +14 +14 1036.9 1029.7
17 13.05 СВ 6
{9}
20 км н/о +15.1 -1.6 32 +14 +14 1036.5 1029.4
18 13.05 СВ 6
{10}
20 км н/о +14.3 -0.1 37 +13 +13 1036.4 1029.2 +15.8
19 13.05 СВ 4
{7}
20 км н/о +12.6 +0.5 43 +11 +11 1036.2 1029.0
20 13.05 СВ 3
{5}
20 км н/о +10.2 +1.8 56 +8 +8 1036.5 1029.2
21 13.05 СВ 4
{7}
20 км н/о +9.8 +1.9 58 +7 +7 1036.7 1029.4
22 13.05 СВ 3
{6}
20 км н/о +8.6 +1.8 62 +6 +6 1036.7 1029.4
23 13.05 СВ 4
{6}
20 км н/о +8.5 +2.8 67 +6 +6 1036.5 1029.2
00 14.05 СВ 4
{7}
20 км н/о +7.6 +3.6 76 +4 +4 1036.5 1029.0
01 14.05 СВ 3
{5}
20 км н/о +6.8 +3.4 79 +4 +4 1036.2 1028.7
02 14.05 СВ 3
{4}
20 км н/о +5.5 +3.1 85 +2 +2 1036.0 1028.5
03 14.05 СВ 2
{5}
20 км н/о +5.0 +2.7 85 +2 +2 1035.7 1028.4
04 14.05 СВ 3
{4}
20 км н/о +4.9 +2.4 84 +1 +1 1035.7 1028.2
05 14.05 СВ 3
{5}
20 км н/о +5.5 +2.4 80 +2 +2 1035.5 1028.2
06 14.05 СВ 4
{6}
20 км н/о +7.3 +3.2 75 +4 +4 1035.4 1028.0 +4.5
07 14.05 СВ 4
{7}
20 км н/о +8.8 +3.9 71 +6 +6 1035.2 1027.7
08 14.05 СВ 5
{7}
18 км н/о +9.9 +3.3 63 +7 +7 1035.0 1027.7
09 14.05 СВ 6
{8}
20 км н/о +11.1 +2.7 56 +8 +8 1034.5 1027.2
10 14.05 СВ 5
{9}
20 км н/о +12.7 +4.3 57 +11 +11 1034.0 1026.7
11 14.05 СВ 6
{9}
20 км н/о +13.3 +3.4 51 +11 +11 1033.4 1026.0
12 14.05 СВ 6
{10}
19 км н/о +13.8 +2.1 45 +12 +12 1032.7 1025.4
13 14.05 СВ 5
{10}
19 км н/о +14.9 +3.7 47 +14 +14 1031.7 1024.5
14 14.05 СВ 6
{10}
20 км н/о +15.2 +4.0 47 +14 +14 1031.2 1024.0
15 14.05 СВ 6
{10}
19 км н/о +15.3 +3.8 46 +14 +14 1030.4 1023.2
16 14.05 СВ 5
{9}
20 км н/о +15.5 +4.4 48 +14 +14 1029.7 1022.6
17 14.05 СВ 6
{9}
20 км н/о +15.3 +3.3 45 +14 +14 1029.4 1022.2
18 14.05 СВ 4
{10}
19 км н/о +14.8 +2.6 44 +14 +14 1029.2 1022.1 +16.1
19 14.05 СВ 3
{7}
20 км н/о +12.8 +3.5 53 +12 +12 1029.0 1021.7
20 14.05 СВ 2
{4}
20 км н/о +11.1 +4.1 62 +10 +10 1029.2 1021.8
21 14.05 нст 1
{7}
20 км н/о +9.6 +4.0 68 +9 +9 1029.2 1022.0
22 14.05
{2}
20 км н/о +8.8 +3.4 69 1029.2 1021.8
23 14.05
{2}
20 км н/о +7.5 +2.9 73 1028.9 1021.6
00 15.05 нст 1
{7}
20 км н/о +6.4 +2.8 78 +5 +5 1028.7 1021.3
01 15.05
{1}
20 км н/о +6.9 +2.4 73 1028.2 1020.8
02 15.05
{1}
20 км н/о +5.4 +2.1 79 1028.0 1020.6
03 15.05 нст 1
{2}
20 км н/о +3.8 +1.6 86 +2 +2 1028.0 1020.5
04 15.05 С 3
{3}
19 км н/о +4.2 +1.6 83 +1 +1 1028.0 1020.7
05 15.05
{3}
13 км н/о +6.7 +2.5 75 1028.2 1020.7
06 15.05 нст 1
{3}
18 км н/о +8.0 +4.6 79 +7 +7 1028.2 1020.7 +3.7
07 15.05
{1}
16 км н/о +11.1 +4.7 65 1028.0 1020.7
10 15.05 СВ 5
{8}
20 км н/о +14.5 +2.3 44 +13 +13 1026.7 1019.6
11 15.05 СВ 5
{8}
20 км н/о +15.3 +3.9 46 +14 +14 1025.9 1018.7
12 15.05 СВ 5
{9}
18 км н/о +15.8 +4.6 47 +15 +15 1025.4 1018.2
13 15.05 СВ 4
{9}
20 км н/о +16.8 +4.5 44 +16 +16 1024.7 1017.6
14 15.05 СВ 6
{12}
20 км н/о +16.7 +3.2 40 +16 +16 1024.2 1017.1
15 15.05 СВ 5
{12}
20 км н/о +16.8 +1.4 35 +16 +16 1023.7 1016.6
16 15.05 С 6
{9}
20 км н/о +16.6 -0.6 31 +16 +16 1023.3 1016.2
17 15.05 СВ 6
{9}
20 км н/о +16.2 -1.8 29 +15 +15 1023.2 1016.1
18 15.05 СВ 5
{12}
20 км н/о +15.1 -1.1 33 +14 +14 1022.7 1015.7 +17.5
19 15.05 СВ 3
{6}
20 км н/о +12.2 +1.1 47 +11 +11 1023.1 1015.8
20 15.05 В 2
{4}
20 км н/о +10.5 +1.3 53 +10 +10 1023.2 1016.0
21 15.05 СВ 2
{6}
20 км н/о +9.9 +0.6 52 +9 +9 1023.0 1015.7
22 15.05 СВ 2
{3}
20 км н/о +9.3 +0.6 55 +8 +8 1022.7 1015.5
23 15.05 В 2
{3}
20 км н/о +7.9 +1.2 63 +6 +6 1022.5 1015.2
00 16.05 нст 1
{6}
20 км н/о +7.9 +0.8 61 +7 +7 1022.1 1014.7
01 16.05 С 2
{2}
20 км н/о +7.5 +0.8 62 +6 +6 1021.7 1014.3
02 16.05
{2}
20 км н/о +6.6 +0.8 66 1021.2 1014.0
03 16.05 СВ 2
{4}
20 км н/о +5.1 +0.8 74 +3 +3 1021.2 1013.8
04 16.05
{4}
20 км н/о +4.6 +1.1 78 1020.7 1013.3
05 16.05
{2}
19 км н/о +6.7 +1.7 70 1020.7 1013.3
06 16.05 нст 1
{4}
20 км н/о +9.0 +3.3 67 +9 +9 1020.7 1013.5 +3.7
07 16.05
{2}
20 км н/о +10.1 +4.3 67 1020.6 1013.3
08 16.05
{3}
20 км н/о +12.6 +3.3 53 1020.1 1012.8
09 16.05 СВ 2
{4}
18 км н/о +13.9 +4.9 55 +14 +14 1019.5 1012.3
10 16.05 СВ 4
{7}
20 км н/о +14.3 +3.8 49 +13 +13 1018.8 1011.7
11 16.05 СВ 5
{11}
18 км н/о +14.6 +3.8 48 +13 +13 1018.2 1011.1
12 16.05 С 5
{11}
20 км н/о +15.1 +4.4 49 +14 +14 1017.5 1010.3
13 16.05 СВ 5
{8}
20 км н/о +15.9 +4.5 47 +15 +15 1016.6 1009.5
14 16.05 СВ 4
{8}
20 км н/о +16.5 +5.6 48 +16 +16 1015.5 1008.5
15 16.05 СВ 3
{9}
20 км н/о +15.8 +5.4 50 +15 +15 1014.7 1007.7
16 16.05 СВ 5
{7}
20 км н/о +15.8 +5.0 49 +15 +15 1014.2 1007.1
17 16.05 СВ 5
{8}
20 км н/о +16.1 +5.0 48 +15 +15 1013.7 1006.6
18 16.05 СВ 5
{9}
20 км н/о +15.5 +4.7 49 +14 +14 1013.2 1006.2 +17.4
19 16.05 В 3
{6}
20 км н/о +13.4 +6.1 61 +12 +12 1013.0 1005.8
20 16.05
{3}
20 км н/о +12.3 +5.8 64 1012.6 1005.5
21 16.05 нст 1
{6}
20 км н/о +11.0 +6.0 71 +11 +11 1012.3 1005.2
22 16.05 В 2
{4}
20 км н/о +10.8 +5.7 71 +10 +10 1012.0 1004.8
23 16.05 штиль 0
{2}
20 км н/о +9.0 +5.6 79 +8 +8 1011.3 1004.2
00 17.05 нст 1
{6}
18 км н/о +8.8 +5.9 82 +8 +8 1010.7 1003.6
01 17.05
{1}
16 км н/о +8.6 +6.5 87 1009.8 1002.7
02 17.05
{1}
18 км н/о +9.1 +6.3 83 1009.2 1002.1
03 17.05 нст 2
{2}
16 км н/о +9.3 +6.8 84 +8 +8 1008.8 1001.7
04 17.05 СВ 2
{3}
14 км н/о +9.5 +7.1 85 +8 +8 1008.5 1001.2
05 17.05 В 2
{4}
12 км н/о +10.1 +6.8 80 +9 +9 1008.6 1001.5
06 17.05 В 4
{5}
7000 м слаб. морось {дождь} н/о +9.6 +7.6 87 +7 +7 1008.6 1001.5 +8.2
07 17.05 В 4
{6}
5000 м слаб. морось {дождь} н/о +9.8 +8.3 90 +7 +7 1008.5 1001.2
08 17.05 В 3
{5}
5000 м {дождь, морось} н/о +10.2 +8.4 89 +8 +8 1008.1 1001.0
09 17.05 В 4
{6}
5000 м {дождь, морось} н/о +10.8 +8.5 86 +8 +8 1007.6 1000.5
10 17.05 СВ 3
{5}
6000 м н/о +10.9 +8.2 83 +9 +9 1007.3 1000.2
11 17.05 СВ 4
{5}
9000 м н/о +11.5 +8.4 81 +9 +9 1007.2 1000.1
12 17.05 В 3
{6}
9000 м {дождь, морось} н/о +11.8 +7.9 77 +10 +10 1007.2 1000.2 0.2
13 17.05 СВ 2
{4}
8000 м н/о +12.2 +8.1 76 +11 +11 1007.2 1000.2
14 17.05 СВ 2
{3}
14 км н/о +13.5 +9.1 75 +13 +13 1006.7 999.8
15 17.05 СВ 2
{4}
12 км н/о +13.0 +8.2 73 +12 +12 1006.7 999.8
16 17.05
{3}
12 км {дождь} н/о +13.1 +8.4 73 1006.7 999.6
17 17.05 В 2
{3}
19 км слаб. морось {дождь} н/о +12.5 +9.3 81 +12 +12 1006.3 999.4
18 17.05 нст 1
{4}
12 км {дождь, морось} н/о +12.2 +9.2 82 +12 +12 1006.2 999.3 +13.5 0.4
19 17.05
{1}
8000 м {дождь} н/о +11.6 +10.1 91 1006.6 999.5
20 17.05
{2}
8000 м н/о +11.0 +9.8 92 1006.7 999.7
21 17.05 нст 1
{2}
6000 м {дождь} н/о +10.8 +9.9 94 +10 +10 1006.6 999.5
22 17.05
{1}
6000 м н/о +10.6 +9.9 95 1006.5 999.4
23 17.05
{1}
5000 м дымка н/о +10.1 +9.5 96 1006.5 999.4
00 18.05 нст 1
{2}
4200 м дымка {дождь} н/о +9.6 +9.2 97 +9 +9 1006.5 999.3 0.2
01 18.05
{1}
3200 м дымка н/о +9.5 +9.1 97 1006.2 999.1
02 18.05
{1}
3400 м дымка н/о +9.3 +9.0 98 1006.2 999.0
03 18.05 нст 1
{1}
3400 м дымка н/о +8.8 +8.4 97 +8 +8 1005.8 998.7
04 18.05
{1}
200 м туман н/о +7.6 +7.1 97 1005.8 998.7
05 18.05 4900 м туман н/о +7.3 +7.2 99 1006.2 999.0
06 18.05 В 2
{3}
200 м туман н/о +8.5 +8.5 100 +6 +6 1006.2 999.1 +6.5 0.2
07 18.05
{3}
2400 м дымка {туман} н/о +9.6 +9.4 99 1006.3 999.3
08 18.05 В 2
{4}
4500 м дымка н/о +11.5 +10.1 91 +10 +10 1006.5 999.5
09 18.05 В 2
{4}
5000 м {туман} н/о +13.0 +10.2 83 +12 +12 1006.6 999.5
10 18.05 В 2
{4}
6000 м н/о +14.3 +10.7 79 +14 +14 1006.7 999.8
11 18.05 СВ 2
{4}
6000 м н/о +16.2 +11.9 76 +16 +16 1006.6 999.6
12 18.05 СВ 2
{4}
16 км {туман} н/о +17.9 +11.8 67 +18 +18 1006.2 999.3
13 18.05 В 2
{3}
15 км н/о +18.4 +10.0 58 +19 +19 1006.2 999.3
14 18.05
{5}
12 км н/о +19.3 +11.6 61 1006.0 999.1
15 18.05 СВ 2
{5}
20 км н/о +19.3 +10.5 57 +21 +21 комфорт 1005.8 999.0
16 18.05
{2}
20 км н/о +21.0 +10.2 50 1005.7 998.9
17 18.05 В 4
{5}
20 км слаб. дождь н/о +18.7 +11.1 61 +19 +19 1005.8 999.0
18 18.05 нст 1
{5}
18 км {дождь} н/о +17.7 +12.1 70 +19 +19 1006.2 999.4 +21.4 0.0
19 18.05
{2}
15 км н/о +17.7 +11.6 67 1006.7 999.7
20 18.05 С 2
{3}
11 км н/о +15.4 +11.5 78 +15 +15 1007.2 1000.2
21 18.05 С 3
{5}
5000 м н/о +14.8 +11.2 79 +14 +14 1007.7 1000.7
22 18.05 СВ 3
{4}
5000 м н/о +14.1 +10.4 78 +13 +13 1007.7 1000.6
23 18.05
{3}
4800 м дымка н/о +13.3 +10.0 80 1007.3 1000.3
00 19.05 нст 1
{5}
3900 м дымка н/о +12.1 +9.8 86 +12 +12 1007.2 1000.2
01 19.05
{2}
3800 м дымка н/о +12.1 +9.6 85 1007.2 1000.2
02 19.05
{2}
3200 м дымка н/о +11.6 +9.9 89 1007.0 999.9
03 19.05 нст 1
{2}
3000 м дымка н/о +11.8 +10.0 89 +12 +12 1007.0 999.9
04 19.05
{2}
2700 м дымка {дождь} н/о +11.5 +10.3 92 1006.8 999.9
05 19.05
{2}
2200 м дымка {дождь} н/о +11.6 +10.6 94 1007.1 1000.0
06 19.05 С 2
{3}
2300 м слаб. морось {дождь} н/о +11.6 +10.8 95 +10 +10 1007.2 1000.2 +11.3 0.3
07 19.05 С 3
{5}
1800 м слаб. дождь {морось} н/о +11.9 +11.3 96 +10 +10 1007.6 1000.5

 

Местоположение метеостанции Шьевр (Бельгия): широта 50.57 долгота 3.83 высота над уровнем моря 63 м.

В архиве по умолчанию представлена погода в Шьевре за последнюю неделю. Архивные данные за месяц целиком и за предыдущие месяцы, начиная с января 2011 года, Вы можете получить, выбрав интересующий диапазон дат из раскрывающегося списка и нажав кнопку "Ввод!".


*Определитесь, кто Вы:
робот инопланетянин человек

Внимание! Время в таблицах - всемирное. Для получения местного времени необходимо прибавить поправку, которая равна 1 ч.

Смотрите также архив погоды в соседних городах и на ближайших метеорологических станциях:

Погода в Семмерзэйке (Бельгия) (42 км)
Погода в Уккеле (Бельгия) (45 км)
Погода в Шарлеруа (Бельгия) (45 км)
Погода в Мелле (Бельгия) (46 км)
Погода в Лилле (Франция) (52 км)
Погода в Эрнаже (Бельгия) (61 км)
Погода в Брюсселе (Бельгия) (61 км)
Погода в Бейтеме (Бельгия) (62 км)
Погода в Генте (Бельгия) (68 км)
Погода в Бовешене (Бельгия) (69 км)

Пояснения к столбцам:

Ветер - указаны скорость ветра в м/с - средняя за 10 мин, порывы в срок и между сроками (в фигурных скобках) и направление, откуда дует ветер: С - северный, СВ - северо-восточный, В - восточный, ЮВ - юго-восточный, Ю - южный, ЮЗ - юго-западный, З - западный, СЗ - северо-западный.
Видимость - горизонтальная дальность видимости в метрах или километрах. При видимости от 1 до 10 км при отсутствии осадков обычно наблюдается дымка, при ухудшении видимости до 1 км и менее - туман. В сухую погоду видимость может ухудшаться дымом, пылью или мглою.
Явления - указаны атмосферные явления, наблюдавшиеся в срок или в последний час перед сроком; фигурными скобками обозначены явления, наблюдавшиеся между сроками (за 1-3 часа до срока); квадратными скобками обозначены град или гололедные отложения с указанием их диаметра в мм.
Облачность - указаны через наклонную черту общая и нижняя облачность в баллах и высота нижней границы облаков в метрах; квадратными скобками обозначены формы облаков: Ci - перистые, Cs - перисто-слоистые, Cc - перисто-кучевые, Ac - высококучевые, As - высокослоистые, Sc - слоисто-кучевые, Ns - слоисто-дождевые, Cu - кучевые, Cb - кучево-дождевые. Подробнее классификацию облаков см. в Атласе облаков (PDF).
T - Температура воздуха - температура, измеренная на высоте 2 м над землей.
Td - Температура точки росы - температура, при понижении до которой содержащийся в воздухе водяной пар достигнет насыщения.
f - Относительная влажность воздуха - влажноcть воздуха, измеренная на высоте 2 м над землей.
Te - Эффективная температура - температура, которую ощущает одетый по сезону человек в тени. Характеристика душности погоды. При расчете учитывается влияние влажности воздуха и скорости ветра на теплоощущения человека.
Tes - Эффективная температура на солнце - температура, которую ощущает человек, с поправкой на солнечный нагрев. Характеристика знойности погоды. Зависит от высоты солнца над горизонтом, облачности и скорости ветра. Ночью, в пасмурную погоду, а также при ветре 12 м/с и более поправка равна нулю.
P - Атмосферное давление - приведенное к уровню моря атмосферное давление.
Po - Атмосферное давление - измеренное на уровне метеостанции атмосферное давление.
Tmin - Минимальная температура - минимум температуры воздуха на высоте 2 м над землей.
Tmax - Максимальная температура - максимум температуры воздуха на высоте 2 м над землей.
R - Количество осадков - Количество выпавших осадков за период времени, мм. При наведении курсора мыши на число - период времени, за который выпало указанное количество осадков.
R24 - Количество осадков - Количество выпавших осадков за 24 часа, мм.
S - Снежный покров - Высота снежного покрова, см. При наведении курсора мыши на число - состояние снежного покрова и степень покрытия местности в баллах.